User: anonymous   Login
Location: Camp Creek
(33.9000°N, 111.8167°W)
Time: 01:37:03
(UTC-07:00)
Language:

Cosmos 1656 - Orbit

View from above orbital plane
View from above orbital plane
View from above satellite
View from above satellite

Ground track
Ground track

The orbit data is extracted from the following two-line orbital elements,

1 15755U 85042A   14295.42549464  .00000303  00000-0  16265-3 0  8854
2 15755 071.1131 244.1659 0033251 117.3131 243.1387 14.20304619523133
Epoch (UTC): 22 October 2014 10:12:42
Eccentricity: 0.0033251
inclination: 71.1131°
perigee height: 800 km
apogee height: 848 km
right ascension of ascending node: 244.1659°
argument of perigee: 117.3131°
revolutions per day: 14.20304619
mean anomaly at epoch: 243.1387°
orbit number at epoch: 52313

The dashed part of the orbit path shows where the satellite is in the earth's shadow,  

DLR